Time,TemperatureF,DewpointF,PressureIn,WindDirection,WindDirectionDegrees,WindSpeedMPH,WindSpeedGustMPH,Humidity,HourlyPrecipIn,Conditions,Clouds,dailyrainin,SoftwareType,DateUTC
2013-04-28 00:01:00,44.2,32.0,30.32,South,179,0.4,2.3,62,0.00,CLR,,0.00,WeatherDisplay:10.37,2013-04-28 04:01:00,
2013-04-28 00:06:00,43.9,32.1,30.32,South,180,0.0,0.0,63,0.00,CLR,,0.00,WeatherDisplay:10.37,2013-04-28 04:06:00,
2013-04-28 00:11:00,43.6,31.8,30.32,South,180,0.0,0.0,63,0.00,CLR,,0.00,WeatherDisplay:10.37,2013-04-28 04:11:00,
2013-04-28 00:16:00,43.5,32.5,30.33,South,180,0.0,0.0,65,0.00,CLR,,0.00,WeatherDisplay:10.37,2013-04-28 04:16:00,
2013-04-28 00:21:00,43.2,32.2,30.33,South,180,0.0,0.0,65,0.00,CLR,,0.00,WeatherDisplay:10.37,2013-04-28 04:21:00,
2013-04-28 00:26:00,43.0,32.4,30.33,South,180,0.0,0.0,66,0.00,CLR,,0.00,WeatherDisplay:10.37,2013-04-28 04:26:00,
2013-04-28 00:31:00,42.9,32.3,30.33,South,179,0.0,0.0,66,0.00,CLR,,0.00,WeatherDisplay:10.37,2013-04-28 04:31:00,
2013-04-28 00:36:00,42.6,32.4,30.33,South,180,0.0,0.0,67,0.00,CLR,,0.00,WeatherDisplay:10.37,2013-04-28 04:36:00,
2013-04-28 00:41:00,42.3,32.5,30.33,South,179,0.0,0.0,68,0.00,CLR,,0.00,WeatherDisplay:10.37,2013-04-28 04:41:00,
2013-04-28 00:46:00,42.2,32.4,30.33,South,180,0.0,0.0,68,0.00,CLR,,0.00,WeatherDisplay:10.37,2013-04-28 04:46:00,
2013-04-28 00:51:00,41.9,32.1,30.33,South,180,0.0,0.0,68,0.00,CLR,,0.00,WeatherDisplay:10.37,2013-04-28 04:51:00,
2013-04-28 00:56:00,41.5,32.1,30.33,South,179,0.0,0.0,69,0.00,CLR,,0.00,WeatherDisplay:10.37,2013-04-28 04:56:00,
2013-04-28 01:01:00,41.2,32.2,30.33,South,180,0.0,0.0,70,0.00,CLR,,0.00,WeatherDisplay:10.37,2013-04-28 05:01:00,
2013-04-28 01:06:00,40.9,31.9,30.33,South,180,0.0,0.0,70,0.00,CLR,,0.00,WeatherDisplay:10.37,2013-04-28 05:06:00,
2013-04-28 01:11:00,40.6,31.6,30.33,South,180,0.0,0.0,70,0.00,CLR,,0.00,WeatherDisplay:10.37,2013-04-28 05:11:00,
2013-04-28 01:16:00,40.3,32.0,30.32,South,180,0.0,0.0,72,0.00,CLR,,0.00,WeatherDisplay:10.37,2013-04-28 05:16:00,
2013-04-28 01:21:00,40.0,31.7,30.32,South,180,0.0,0.0,72,0.00,CLR,,0.00,WeatherDisplay:10.37,2013-04-28 05:21:00,
2013-04-28 01:26:00,39.9,31.6,30.32,South,180,0.0,0.0,72,0.00,CLR,,0.00,WeatherDisplay:10.37,2013-04-28 05:26:00,
2013-04-28 01:31:00,39.6,31.7,30.32,South,180,0.0,0.0,73,0.00,CLR,,0.00,WeatherDisplay:10.37,2013-04-28 05:31:00,
2013-04-28 01:36:00,39.3,31.4,30.32,South,179,0.0,0.0,73,0.00,CLR,,0.00,WeatherDisplay:10.37,2013-04-28 05:36:00,
2013-04-28 01:41:00,39.0,31.4,30.32,South,180,0.0,0.0,74,0.00,CLR,,0.00,WeatherDisplay:10.37,2013-04-28 05:41:00,
2013-04-28 01:46:00,38.9,31.6,30.32,South,180,0.0,0.0,75,0.00,CLR,,0.00,WeatherDisplay:10.37,2013-04-28 05:46:00,
2013-04-28 01:51:00,38.6,31.4,30.32,South,180,0.0,0.0,75,0.00,CLR,,0.00,WeatherDisplay:10.37,2013-04-28 05:51:00,
2013-04-28 01:56:00,38.3,31.1,30.32,South,179,0.0,0.0,75,0.00,CLR,,0.00,WeatherDisplay:10.37,2013-04-28 05:56:00,
2013-04-28 02:01:00,38.2,31.6,30.32,South,180,0.0,0.0,77,0.00,CLR,,0.00,WeatherDisplay:10.37,2013-04-28 06:01:00,
2013-04-28 02:06:00,38.2,31.6,30.32,South,179,0.0,0.0,77,0.00,CLR,,0.00,WeatherDisplay:10.37,2013-04-28 06:06:00,
2013-04-28 02:11:00,38.0,31.4,30.32,South,179,0.0,0.0,77,0.00,CLR,,0.00,WeatherDisplay:10.37,2013-04-28 06:11:00,
2013-04-28 02:16:00,37.9,31.3,30.32,South,180,0.0,0.0,77,0.00,CLR,,0.00,WeatherDisplay:10.37,2013-04-28 06:16:00,
2013-04-28 02:21:00,37.6,31.0,30.32,South,180,0.0,0.0,77,0.00,CLR,,0.00,WeatherDisplay:10.37,2013-04-28 06:21:00,
2013-04-28 02:26:00,37.5,31.3,30.32,South,180,0.0,0.0,78,0.00,CLR,,0.00,WeatherDisplay:10.37,2013-04-28 06:26:00,
2013-04-28 02:31:00,37.3,31.4,30.32,South,179,0.0,0.0,79,0.00,CLR,,0.00,WeatherDisplay:10.37,2013-04-28 06:31:00,
2013-04-28 02:36:00,37.2,31.3,30.32,South,180,0.0,0.0,79,0.00,CLR,,0.00,WeatherDisplay:10.37,2013-04-28 06:36:00,
2013-04-28 02:41:00,36.9,31.0,30.32,South,179,0.0,0.0,79,0.00,CLR,,0.00,WeatherDisplay:10.37,2013-04-28 06:41:00,
2013-04-28 02:46:00,36.7,31.1,30.31,South,180,0.0,0.0,80,0.00,CLR,,0.00,WeatherDisplay:10.37,2013-04-28 06:46:00,
2013-04-28 02:51:00,36.6,31.0,30.31,South,180,0.0,0.0,80,0.00,CLR,,0.00,WeatherDisplay:10.37,2013-04-28 06:51:00,
2013-04-28 02:56:00,36.5,31.2,30.32,South,180,0.0,0.0,81,0.00,CLR,,0.00,WeatherDisplay:10.37,2013-04-28 06:56:00,
2013-04-28 03:01:00,36.2,30.9,30.32,South,180,0.0,0.0,81,0.00,CLR,,0.00,WeatherDisplay:10.37,2013-04-28 07:01:00,
2013-04-28 03:06:00,36.0,30.7,30.32,South,180,0.0,0.0,81,0.00,CLR,,0.00,WeatherDisplay:10.37,2013-04-28 07:06:00,
2013-04-28 03:11:00,35.9,30.6,30.32,South,179,0.0,0.0,81,0.00,CLR,,0.00,WeatherDisplay:10.37,2013-04-28 07:11:00,
2013-04-28 03:16:00,35.6,30.6,30.32,South,180,0.0,0.0,82,0.00,CLR,,0.00,WeatherDisplay:10.37,2013-04-28 07:16:00,
2013-04-28 03:21:00,35.5,30.5,30.32,South,180,0.0,0.0,82,0.00,CLR,,0.00,WeatherDisplay:10.37,2013-04-28 07:21:00,
2013-04-28 03:26:00,35.3,30.7,30.32,South,180,0.0,0.0,83,0.00,CLR,,0.00,WeatherDisplay:10.37,2013-04-28 07:26:00,
2013-04-28 03:31:00,35.2,30.6,30.32,South,180,0.0,0.0,83,0.00,CLR,,0.00,WeatherDisplay:10.37,2013-04-28 07:31:00,
2013-04-28 03:36:00,35.0,30.4,30.32,South,180,0.0,0.0,83,0.00,CLR,,0.00,WeatherDisplay:10.37,2013-04-28 07:36:00,
2013-04-28 03:41:00,34.9,30.6,30.32,South,180,0.0,0.0,84,0.00,CLR,,0.00,WeatherDisplay:10.37,2013-04-28 07:41:00,
2013-04-28 03:46:00,34.7,30.4,30.32,South,180,0.0,0.0,84,0.00,CLR,,0.00,WeatherDisplay:10.37,2013-04-28 07:46:00,
2013-04-28 03:51:00,34.6,30.3,30.32,South,180,0.0,0.0,84,0.00,CLR,,0.00,WeatherDisplay:10.37,2013-04-28 07:51:00,
2013-04-28 03:56:00,34.4,30.1,30.32,South,180,0.0,0.0,84,0.00,CLR,,0.00,WeatherDisplay:10.37,2013-04-28 07:56:00,
2013-04-28 04:01:00,34.3,30.3,30.32,South,180,0.0,0.0,85,0.00,CLR,,0.00,WeatherDisplay:10.37,2013-04-28 08:01:00,
2013-04-28 04:06:00,34.1,30.1,30.32,South,179,0.0,0.0,85,0.00,CLR,,0.00,WeatherDisplay:10.37,2013-04-28 08:06:00,
2013-04-28 04:11:00,34.0,30.0,30.32,South,180,0.0,0.0,85,0.00,CLR,,0.00,WeatherDisplay:10.37,2013-04-28 08:11:00,
2013-04-28 04:16:00,34.1,30.6,30.32,South,180,0.0,0.0,87,0.00,CLR,,0.00,WeatherDisplay:10.37,2013-04-28 08:16:00,
2013-04-28 04:21:00,34.3,30.8,30.32,South,180,0.0,0.0,87,0.00,CLR,,0.00,WeatherDisplay:10.37,2013-04-28 08:21:00,
2013-04-28 04:26:00,34.1,30.6,30.32,South,179,0.0,0.0,87,0.00,CLR,,0.00,WeatherDisplay:10.37,2013-04-28 08:26:00,
2013-04-28 04:31:00,34.1,30.6,30.32,South,180,0.0,0.0,87,0.00,CLR,,0.00,WeatherDisplay:10.37,2013-04-28 08:31:00,
2013-04-28 04:36:00,34.0,30.5,30.32,South,180,0.0,0.0,87,0.00,CLR,,0.00,WeatherDisplay:10.37,2013-04-28 08:36:00,
2013-04-28 04:41:00,33.8,30.6,30.31,South,180,0.0,0.0,88,0.00,CLR,,0.00,WeatherDisplay:10.37,2013-04-28 08:41:00,
2013-04-28 04:46:00,33.8,30.6,30.32,South,180,0.0,0.0,88,0.00,CLR,,0.00,WeatherDisplay:10.37,2013-04-28 08:46:00,
2013-04-28 04:51:00,33.8,30.6,30.31,South,180,0.0,0.0,88,0.00,CLR,,0.00,WeatherDisplay:10.37,2013-04-28 08:51:00,
2013-04-28 04:56:00,33.8,30.6,30.31,South,180,0.1,1.0,88,0.00,CLR,,0.00,WeatherDisplay:10.37,2013-04-28 08:56:00,
2013-04-28 05:01:00,33.7,30.5,30.31,South,180,0.0,0.0,88,0.00,CLR,,0.00,WeatherDisplay:10.37,2013-04-28 09:01:00,
2013-04-28 05:06:00,33.5,30.3,30.31,South,180,0.0,0.0,88,0.00,CLR,,0.00,WeatherDisplay:10.37,2013-04-28 09:06:00,
2013-04-28 05:11:00,33.5,30.3,30.31,South,180,0.0,0.0,88,0.00,CLR,,0.00,WeatherDisplay:10.37,2013-04-28 09:11:00,
2013-04-28 05:16:00,33.4,30.5,30.31,South,180,0.0,0.0,89,0.00,CLR,,0.00,WeatherDisplay:10.37,2013-04-28 09:16:00,
2013-04-28 05:21:00,33.2,30.0,30.31,South,180,0.0,0.0,88,0.00,CLR,,0.00,WeatherDisplay:10.37,2013-04-28 09:21:00,
2013-04-28 05:26:00,33.2,30.3,30.31,South,180,0.0,1.2,89,0.00,CLR,,0.00,WeatherDisplay:10.37,2013-04-28 09:26:00,
2013-04-28 05:31:00,33.1,30.2,30.31,South,179,0.0,0.0,89,0.00,CLR,,0.00,WeatherDisplay:10.37,2013-04-28 09:31:00,
2013-04-28 05:36:00,32.9,30.0,30.32,South,179,0.0,0.0,89,0.00,CLR,,0.00,WeatherDisplay:10.37,2013-04-28 09:36:00,
2013-04-28 05:41:00,32.8,29.9,30.32,South,180,0.0,0.0,89,0.00,CLR,,0.00,WeatherDisplay:10.37,2013-04-28 09:41:00,
2013-04-28 05:46:00,32.6,29.7,30.32,South,180,0.0,0.0,89,0.00,CLR,,0.00,WeatherDisplay:10.37,2013-04-28 09:46:00,
2013-04-28 05:51:00,32.5,29.6,30.32,South,180,0.0,0.0,89,0.00,CLR,,0.00,WeatherDisplay:10.37,2013-04-28 09:51:00,
2013-04-28 05:56:00,32.4,29.5,30.32,South,180,0.0,0.0,89,0.00,CLR,,0.00,WeatherDisplay:10.37,2013-04-28 09:56:00,
2013-04-28 06:01:00,32.2,29.3,30.32,South,180,0.0,1.2,89,0.00,CLR,,0.00,WeatherDisplay:10.37,2013-04-28 10:01:00,
2013-04-28 06:06:00,32.2,29.3,30.32,South,180,0.0,0.0,89,0.00,CLR,,0.00,WeatherDisplay:10.37,2013-04-28 10:06:00,
2013-04-28 06:11:00,32.2,29.6,30.32,South,180,0.0,0.0,90,0.00,CLR,,0.00,WeatherDisplay:10.37,2013-04-28 10:11:00,
2013-04-28 06:16:00,32.4,29.8,30.32,South,182,0.0,0.0,90,0.00,CLR,,0.00,WeatherDisplay:10.37,2013-04-28 10:16:00,
2013-04-28 06:21:00,32.4,29.8,30.32,South,179,0.0,0.0,90,0.00,CLR,,0.00,WeatherDisplay:10.37,2013-04-28 10:21:00,
2013-04-28 06:26:00,32.5,29.9,30.32,South,180,0.0,0.0,90,0.00,CLR,,0.00,WeatherDisplay:10.37,2013-04-28 10:26:00,
2013-04-28 06:31:00,32.5,29.9,30.32,South,179,0.0,0.0,90,0.00,CLR,,0.00,WeatherDisplay:10.37,2013-04-28 10:31:00,
2013-04-28 06:36:00,32.6,30.0,30.32,South,180,0.0,0.0,90,0.00,CLR,,0.00,WeatherDisplay:10.37,2013-04-28 10:36:00,
2013-04-28 06:41:00,32.9,30.6,30.32,South,179,0.0,0.0,91,0.00,CLR,,0.00,WeatherDisplay:10.37,2013-04-28 10:41:00,
2013-04-28 06:46:00,33.4,31.3,30.32,South,180,0.0,0.0,92,0.00,CLR,,0.00,WeatherDisplay:10.37,2013-04-28 10:46:00,
2013-04-28 06:51:00,33.5,31.4,30.32,South,179,0.0,0.0,92,0.00,CLR,,0.00,WeatherDisplay:10.37,2013-04-28 10:51:00,
2013-04-28 06:56:00,34.0,31.9,30.33,South,180,0.0,0.0,92,0.00,CLR,,0.00,WeatherDisplay:10.37,2013-04-28 10:56:00,
2013-04-28 07:01:00,34.9,33.1,30.33,South,180,0.0,0.0,93,0.00,CLR,,0.00,WeatherDisplay:10.37,2013-04-28 11:01:00,
2013-04-28 07:06:00,35.9,34.1,30.33,South,180,0.0,0.0,93,0.00,CLR,,0.00,WeatherDisplay:10.37,2013-04-28 11:06:00,
2013-04-28 07:11:00,37.0,35.2,30.33,South,180,0.2,1.2,93,0.00,CLR,,0.00,WeatherDisplay:10.37,2013-04-28 11:11:00,
2013-04-28 07:16:00,37.9,35.8,30.33,West,268,0.9,2.3,92,0.00,CLR,,0.00,WeatherDisplay:10.37,2013-04-28 11:16:00,
2013-04-28 07:21:00,38.6,35.9,30.33,NW,323,0.0,0.0,90,0.00,CLR,,0.00,WeatherDisplay:10.37,2013-04-28 11:21:00,
2013-04-28 07:26:00,39.5,36.2,30.33,North,0,1.1,3.0,88,0.00,CLR,,0.00,WeatherDisplay:10.37,2013-04-28 11:26:00,
2013-04-28 07:31:00,39.9,35.5,30.34,North,351,1.3,2.3,84,0.00,CLR,,0.00,WeatherDisplay:10.37,2013-04-28 11:31:00,
2013-04-28 07:36:00,40.2,34.8,30.34,NNW,348,1.3,2.3,81,0.00,CLR,,0.00,WeatherDisplay:10.37,2013-04-28 11:36:00,
2013-04-28 07:41:00,40.8,35.1,30.34,NNE,28,2.6,3.5,80,0.00,CLR,,0.00,WeatherDisplay:10.37,2013-04-28 11:41:00,
2013-04-28 07:46:00,41.3,35.3,30.34,NNE,26,3.0,3.5,79,0.00,CLR,,0.00,WeatherDisplay:10.37,2013-04-28 11:46:00,
2013-04-28 07:51:00,42.2,35.5,30.34,NNE,21,1.8,3.5,77,0.00,CLR,,0.00,WeatherDisplay:10.37,2013-04-28 11:51:00,
2013-04-28 07:56:00,42.9,35.2,30.34,NE,52,2.3,3.5,74,0.00,CLR,,0.00,WeatherDisplay:10.37,2013-04-28 11:56:00,
2013-04-28 08:01:00,43.6,35.2,30.34,NE,52,0.7,2.3,72,0.00,CLR,,0.00,WeatherDisplay:10.37,2013-04-28 12:01:00,
2013-04-28 08:06:00,44.5,35.3,30.34,NE,52,0.0,0.0,70,0.00,CLR,,0.00,WeatherDisplay:10.37,2013-04-28 12:06:00,
2013-04-28 08:11:00,45.5,35.9,30.34,North,358,1.0,2.3,69,0.00,CLR,,0.00,WeatherDisplay:10.37,2013-04-28 12:11:00,
2013-04-28 08:16:00,46.4,36.0,30.34,North,358,0.0,1.2,67,0.00,CLR,,0.00,WeatherDisplay:10.37,2013-04-28 12:16:00,
2013-04-28 08:21:00,47.4,37.0,30.34,North,358,0.0,0.0,67,0.00,CLR,,0.00,WeatherDisplay:10.37,2013-04-28 12:21:00,
2013-04-28 08:26:00,48.8,36.4,30.34,North,358,0.2,2.3,62,0.00,CLR,,0.00,WeatherDisplay:10.37,2013-04-28 12:26:00,
2013-04-28 08:31:00,49.6,37.1,30.34,NE,36,1.5,3.5,62,0.00,CLR,,0.00,WeatherDisplay:10.37,2013-04-28 12:31:00,
2013-04-28 08:36:00,50.1,37.2,30.34,NE,35,0.8,2.0,61,0.00,CLR,,0.00,WeatherDisplay:10.37,2013-04-28 12:36:00,
2013-04-28 08:41:00,50.7,37.7,30.34,ENE,63,0.0,0.0,61,0.00,CLR,,0.00,WeatherDisplay:10.37,2013-04-28 12:41:00,
2013-04-28 08:46:00,51.9,39.3,30.35,ENE,60,0.0,0.0,62,0.00,CLR,,0.00,WeatherDisplay:10.37,2013-04-28 12:46:00,
2013-04-28 08:51:00,52.3,37.1,30.35,ENE,60,0.0,1.2,56,0.00,CLR,,0.00,WeatherDisplay:10.37,2013-04-28 12:51:00,
2013-04-28 08:56:00,52.5,36.8,30.34,ENE,60,0.1,1.2,55,0.00,CLR,,0.00,WeatherDisplay:10.37,2013-04-28 12:56:00,
2013-04-28 09:01:00,53.2,37.4,30.34,ENE,60,0.0,0.0,55,0.00,CLR,,0.00,WeatherDisplay:10.37,2013-04-28 13:01:00,
2013-04-28 09:06:00,54.2,39.3,30.34,WNW,297,0.4,1.2,57,0.00,CLR,,0.00,WeatherDisplay:10.37,2013-04-28 13:06:00,
2013-04-28 09:11:00,54.4,37.6,30.34,NNE,17,0.5,1.2,53,0.00,CLR,,0.00,WeatherDisplay:10.37,2013-04-28 13:11:00,
2013-04-28 09:16:00,54.8,37.0,30.35,NNE,17,0.0,0.0,51,0.00,CLR,,0.00,WeatherDisplay:10.37,2013-04-28 13:16:00,
2013-04-28 09:21:00,55.6,37.7,30.35,NNE,18,0.2,1.2,51,0.00,CLR,,0.00,WeatherDisplay:10.37,2013-04-28 13:21:00,
2013-04-28 09:26:00,56.4,40.0,30.34,WNW,297,1.0,2.3,54,0.00,CLR,,0.00,WeatherDisplay:10.37,2013-04-28 13:26:00,
2013-04-28 09:31:00,57.3,38.3,30.35,West,269,0.5,2.3,49,0.00,CLR,,0.00,WeatherDisplay:10.37,2013-04-28 13:31:00,
2013-04-28 09:36:00,57.5,37.4,30.34,West,271,0.1,1.2,47,0.00,CLR,,0.00,WeatherDisplay:10.37,2013-04-28 13:36:00,
2013-04-28 09:41:00,58.0,39.5,30.34,SE,135,3.1,4.6,50,0.00,CLR,,0.00,WeatherDisplay:10.37,2013-04-28 13:41:00,
2013-04-28 09:46:00,58.6,38.4,30.34,SE,144,2.6,4.6,47,0.00,CLR,,0.00,WeatherDisplay:10.37,2013-04-28 13:46:00,
2013-04-28 09:51:00,59.2,39.0,30.34,SE,124,2.0,3.5,47,0.00,CLR,,0.00,WeatherDisplay:10.37,2013-04-28 13:51:00,
2013-04-28 09:56:00,59.6,38.2,30.34,SE,124,0.1,1.2,45,0.00,CLR,,0.00,WeatherDisplay:10.37,2013-04-28 13:56:00,
2013-04-28 10:01:00,60.4,37.8,30.34,SSW,203,0.6,3.5,43,0.00,CLR,,0.00,WeatherDisplay:10.37,2013-04-28 14:01:00,
2013-04-28 10:06:00,61.3,38.0,30.34,SE,127,3.3,4.6,42,0.00,CLR,,0.00,WeatherDisplay:10.37,2013-04-28 14:06:00,
2013-04-28 10:11:00,62.0,37.4,30.33,WSW,248,4.6,6.9,40,0.00,CLR,,0.00,WeatherDisplay:10.37,2013-04-28 14:11:00,
2013-04-28 10:16:00,62.8,40.0,30.33,SSE,163,3.0,5.8,43,0.00,CLR,,0.00,WeatherDisplay:10.37,2013-04-28 14:16:00,
2013-04-28 10:21:00,63.2,38.5,30.33,ESE,117,4.8,8.1,40,0.00,CLR,,0.00,WeatherDisplay:10.37,2013-04-28 14:21:00,
2013-04-28 10:26:00,63.2,37.8,30.33,South,170,4.6,5.8,39,0.00,CLR,,0.00,WeatherDisplay:10.37,2013-04-28 14:26:00,
2013-04-28 10:31:00,63.6,38.8,30.33,South,187,2.8,5.8,40,0.00,CLR,,0.00,WeatherDisplay:10.37,2013-04-28 14:31:00,
2013-04-28 10:36:00,64.4,40.8,30.33,SSW,201,7.1,13.0,42,0.00,CLR,,0.00,WeatherDisplay:10.37,2013-04-28 14:36:00,
2013-04-28 10:41:00,64.5,37.6,30.33,South,185,2.1,4.6,37,0.00,CLR,,0.00,WeatherDisplay:10.37,2013-04-28 14:41:00,
2013-04-28 10:46:00,65.2,42.7,30.33,SSW,197,6.4,11.5,44,0.00,CLR,,0.00,WeatherDisplay:10.37,2013-04-28 14:46:00,
2013-04-28 10:51:00,65.5,39.9,30.33,SW,228,2.9,11.5,39,0.00,CLR,,0.00,WeatherDisplay:10.37,2013-04-28 14:51:00,
2013-04-28 10:56:00,66.0,37.5,30.33,SSE,149,5.9,6.9,35,0.00,CLR,,0.00,WeatherDisplay:10.37,2013-04-28 14:56:00,
2013-04-28 11:01:00,65.7,38.0,30.32,SE,125,8.4,10.4,36,0.00,CLR,,0.00,WeatherDisplay:10.37,2013-04-28 15:01:00,
2013-04-28 11:06:00,65.5,36.4,30.32,SSW,210,1.2,3.5,34,0.00,CLR,,0.00,WeatherDisplay:10.37,2013-04-28 15:06:00,
2013-04-28 11:11:00,66.0,39.0,30.32,West,275,5.7,11.5,37,0.00,CLR,,0.00,WeatherDisplay:10.37,2013-04-28 15:11:00,
2013-04-28 11:16:00,66.3,41.2,30.32,SW,231,3.9,8.1,40,0.00,CLR,,0.00,WeatherDisplay:10.37,2013-04-28 15:16:00,
2013-04-28 11:21:00,66.6,35.8,30.32,SSW,211,6.5,10.4,32,0.00,CLR,,0.00,WeatherDisplay:10.37,2013-04-28 15:21:00,
2013-04-28 11:26:00,66.5,37.2,30.32,SSE,151,2.0,7.0,34,0.00,CLR,,0.00,WeatherDisplay:10.37,2013-04-28 15:26:00,
2013-04-28 11:31:00,66.8,36.8,30.31,SSW,199,4.1,6.9,33,0.00,CLR,,0.00,WeatherDisplay:10.37,2013-04-28 15:31:00,
2013-04-28 11:36:00,66.8,35.2,30.31,SSE,152,5.6,11.5,31,0.00,CLR,,0.00,WeatherDisplay:10.37,2013-04-28 15:36:00,
2013-04-28 11:41:00,67.1,38.5,30.31,SW,217,3.2,8.1,35,0.00,CLR,,0.00,WeatherDisplay:10.37,2013-04-28 15:41:00,
2013-04-28 11:46:00,67.0,32.8,30.31,SSE,161,6.9,9.2,28,0.00,CLR,,0.00,WeatherDisplay:10.37,2013-04-28 15:46:00,
2013-04-28 11:51:00,67.0,35.3,30.31,South,183,2.1,3.5,31,0.00,CLR,,0.00,WeatherDisplay:10.37,2013-04-28 15:51:00,
2013-04-28 11:56:00,67.3,37.2,30.31,SSE,163,7.3,11.5,33,0.00,CLR,,0.00,WeatherDisplay:10.37,2013-04-28 15:56:00,
2013-04-28 12:01:00,67.5,34.1,30.30,South,169,10.5,11.0,29,0.00,CLR,,0.00,WeatherDisplay:10.37,2013-04-28 16:01:00,
2013-04-28 12:06:00,67.1,35.4,30.30,South,173,6.5,9.2,31,0.00,CLR,,0.00,WeatherDisplay:10.37,2013-04-28 16:06:00,
2013-04-28 12:11:00,67.1,34.6,30.30,SSE,151,7.5,10.4,30,0.00,CLR,,0.00,WeatherDisplay:10.37,2013-04-28 16:11:00,
2013-04-28 12:16:00,67.3,35.6,30.30,SE,124,4.1,6.9,31,0.00,CLR,,0.00,WeatherDisplay:10.37,2013-04-28 16:16:00,
2013-04-28 12:21:00,67.6,36.7,30.29,SE,141,5.6,8.1,32,0.00,CLR,,0.00,WeatherDisplay:10.37,2013-04-28 16:21:00,
2013-04-28 12:26:00,67.6,35.0,30.29,SSE,151,4.7,6.9,30,0.00,CLR,,0.00,WeatherDisplay:10.37,2013-04-28 16:26:00,
2013-04-28 12:31:00,67.8,36.0,30.29,South,170,7.1,10.4,31,0.00,CLR,,0.00,WeatherDisplay:10.37,2013-04-28 16:31:00,
2013-04-28 12:36:00,67.8,36.0,30.29,SW,231,4.8,11.5,31,0.00,CLR,,0.00,WeatherDisplay:10.37,2013-04-28 16:36:00,
2013-04-28 12:41:00,68.3,35.6,30.29,SSE,158,6.1,8.1,30,0.00,CLR,,0.00,WeatherDisplay:10.37,2013-04-28 16:41:00,
2013-04-28 12:46:00,68.3,34.8,30.29,SSE,149,3.1,5.8,29,0.00,CLR,,0.00,WeatherDisplay:10.37,2013-04-28 16:46:00,
2013-04-28 12:51:00,68.0,34.5,30.28,ESE,107,4.9,6.9,29,0.00,CLR,,0.00,WeatherDisplay:10.37,2013-04-28 16:51:00,
2013-04-28 12:56:00,68.0,35.4,30.28,SSE,148,7.0,11.5,30,0.00,CLR,,0.00,WeatherDisplay:10.37,2013-04-28 16:56:00,
2013-04-28 13:01:00,68.3,33.9,30.28,West,265,2.5,5.8,28,0.00,CLR,,0.00,WeatherDisplay:10.37,2013-04-28 17:01:00,
2013-04-28 13:06:00,69.3,38.9,30.28,SW,214,4.7,6.9,33,0.00,CLR,,0.00,WeatherDisplay:10.37,2013-04-28 17:06:00,
2013-04-28 13:11:00,69.8,35.2,30.28,SSE,156,6.8,11.5,28,0.00,CLR,,0.00,WeatherDisplay:10.37,2013-04-28 17:11:00,
2013-04-28 13:16:00,69.3,34.8,30.28,SSE,165,6.3,8.1,28,0.00,CLR,,0.00,WeatherDisplay:10.37,2013-04-28 17:16:00,
2013-04-28 13:21:00,69.3,33.9,30.28,SE,125,2.5,6.0,27,0.00,CLR,,0.00,WeatherDisplay:10.37,2013-04-28 17:21:00,
2013-04-28 13:26:00,69.3,35.7,30.28,SSE,162,5.5,8.1,29,0.00,CLR,,0.00,WeatherDisplay:10.37,2013-04-28 17:26:00,
2013-04-28 13:31:00,69.8,35.2,30.27,South,180,6.2,8.1,28,0.00,CLR,,0.00,WeatherDisplay:10.37,2013-04-28 17:31:00,
2013-04-28 13:36:00,70.3,35.6,30.27,WSW,252,0.6,2.3,28,0.00,CLR,,0.00,WeatherDisplay:10.37,2013-04-28 17:36:00,
2013-04-28 13:41:00,70.3,35.6,30.27,SSE,152,9.3,11.5,28,0.00,CLR,,0.00,WeatherDisplay:10.37,2013-04-28 17:41:00,
2013-04-28 13:46:00,70.1,35.5,30.27,South,183,5.3,8.1,28,0.00,CLR,,0.00,WeatherDisplay:10.37,2013-04-28 17:46:00,
2013-04-28 13:51:00,70.1,32.6,30.27,SW,218,2.1,6.0,25,0.00,CLR,,0.00,WeatherDisplay:10.37,2013-04-28 17:51:00,
2013-04-28 13:56:00,70.0,40.3,30.26,WNW,285,2.1,3.5,34,0.00,CLR,,0.00,WeatherDisplay:10.37,2013-04-28 17:56:00,
2013-04-28 14:01:00,70.1,34.5,30.26,SW,214,6.7,15.0,27,0.00,CLR,,0.00,WeatherDisplay:10.37,2013-04-28 18:01:00,
2013-04-28 14:06:00,70.1,34.5,30.26,SE,138,7.0,9.2,27,0.00,CLR,,0.00,WeatherDisplay:10.37,2013-04-28 18:06:00,
2013-04-28 14:11:00,69.8,33.3,30.26,SE,144,6.8,13.0,26,0.00,CLR,,0.00,WeatherDisplay:10.37,2013-04-28 18:11:00,
2013-04-28 14:16:00,70.1,37.2,30.26,SW,235,3.4,8.1,30,0.00,CLR,,0.00,WeatherDisplay:10.37,2013-04-28 18:16:00,
2013-04-28 14:21:00,70.3,39.8,30.26,WSW,249,1.2,2.3,33,0.00,CLR,,0.00,WeatherDisplay:10.37,2013-04-28 18:21:00,
2013-04-28 14:26:00,70.6,36.8,30.26,SW,218,6.9,11.5,29,0.00,CLR,,0.00,WeatherDisplay:10.37,2013-04-28 18:26:00,
2013-04-28 14:31:00,70.8,36.1,30.25,SSW,199,4.7,10.4,28,0.00,CLR,,0.00,WeatherDisplay:10.37,2013-04-28 18:31:00,
2013-04-28 14:36:00,71.2,37.3,30.25,North,351,2.5,4.6,29,0.00,CLR,,0.00,WeatherDisplay:10.37,2013-04-28 18:36:00,
2013-04-28 14:41:00,71.0,37.1,30.25,NNW,331,3.6,10.4,29,0.00,CLR,,0.00,WeatherDisplay:10.37,2013-04-28 18:41:00,
2013-04-28 14:46:00,70.8,38.7,30.24,SW,233,2.0,2.3,31,0.00,CLR,,0.00,WeatherDisplay:10.37,2013-04-28 18:46:00,
2013-04-28 14:51:00,70.8,36.1,30.24,West,279,3.8,8.1,28,0.00,CLR,,0.00,WeatherDisplay:10.37,2013-04-28 18:51:00,
2013-04-28 14:56:00,71.2,39.0,30.23,SW,227,1.9,3.5,31,0.00,CLR,,0.00,WeatherDisplay:10.37,2013-04-28 18:56:00,
2013-04-28 15:01:00,71.7,37.7,30.24,SSW,196,6.6,8.1,29,0.00,CLR,,0.00,WeatherDisplay:10.37,2013-04-28 19:01:00,
2013-04-28 15:06:00,71.8,35.0,30.24,WNW,302,3.5,6.0,26,0.00,CLR,,0.00,WeatherDisplay:10.37,2013-04-28 19:06:00,
2013-04-28 15:11:00,72.0,37.1,30.23,SW,224,3.0,4.6,28,0.00,CLR,,0.00,WeatherDisplay:10.37,2013-04-28 19:11:00,
2013-04-28 15:16:00,72.4,37.4,30.23,South,190,2.4,3.5,28,0.00,CLR,,0.00,WeatherDisplay:10.37,2013-04-28 19:16:00,
2013-04-28 15:21:00,72.5,37.5,30.23,ESE,117,4.0,6.9,28,0.00,CLR,,0.00,WeatherDisplay:10.37,2013-04-28 19:21:00,
2013-04-28 15:26:00,72.2,35.4,30.23,SW,233,2.6,4.6,26,0.00,CLR,,0.00,WeatherDisplay:10.37,2013-04-28 19:26:00,
2013-04-28 15:31:00,71.8,32.0,30.22,SE,124,3.8,6.9,23,0.00,CLR,,0.00,WeatherDisplay:10.37,2013-04-28 19:31:00,
2013-04-28 15:36:00,71.7,35.9,30.22,SSE,162,0.6,2.3,27,0.00,CLR,,0.00,WeatherDisplay:10.37,2013-04-28 19:36:00,
2013-04-28 15:41:00,71.8,37.8,30.22,SE,137,3.7,8.1,29,0.00,CLR,,0.00,WeatherDisplay:10.37,2013-04-28 19:41:00,
2013-04-28 15:46:00,71.8,34.1,30.21,SSE,152,3.6,6.9,25,0.00,CLR,,0.00,WeatherDisplay:10.37,2013-04-28 19:46:00,
2013-04-28 15:51:00,71.8,33.0,30.21,ESE,117,0.9,2.3,24,0.00,CLR,,0.00,WeatherDisplay:10.37,2013-04-28 19:51:00,
2013-04-28 15:56:00,71.7,37.7,30.21,West,279,3.2,5.8,29,0.00,CLR,,0.00,WeatherDisplay:10.37,2013-04-28 19:56:00,
2013-04-28 16:01:00,71.0,32.4,30.21,SSE,151,0.0,1.2,24,0.00,CLR,,0.00,WeatherDisplay:10.37,2013-04-28 20:01:00,
2013-04-28 16:06:00,71.2,35.5,30.21,ESE,121,3.9,7.0,27,0.00,CLR,,0.00,WeatherDisplay:10.37,2013-04-28 20:06:00,
2013-04-28 16:11:00,71.3,35.6,30.21,WSW,238,5.5,10.4,27,0.00,CLR,,0.00,WeatherDisplay:10.37,2013-04-28 20:11:00,
2013-04-28 16:16:00,71.5,33.8,30.20,SE,141,5.5,11.0,25,0.00,CLR,,0.00,WeatherDisplay:10.37,2013-04-28 20:16:00,
2013-04-28 16:21:00,71.2,34.5,30.20,SSE,148,4.4,12.7,26,0.00,CLR,,0.00,WeatherDisplay:10.37,2013-04-28 20:21:00,
2013-04-28 16:26:00,70.8,34.2,30.20,ESE,113,1.1,4.0,26,0.00,CLR,,0.00,WeatherDisplay:10.37,2013-04-28 20:26:00,
2013-04-28 16:31:00,70.5,35.8,30.20,SE,134,7.7,12.7,28,0.00,CLR,,0.00,WeatherDisplay:10.37,2013-04-28 20:31:00,
2013-04-28 16:36:00,69.6,35.0,30.20,ESE,118,6.9,10.4,28,0.00,CLR,,0.00,WeatherDisplay:10.37,2013-04-28 20:36:00,
2013-04-28 16:41:00,69.1,33.7,30.20,East,89,6.0,8.1,27,0.00,CLR,,0.00,WeatherDisplay:10.37,2013-04-28 20:41:00,
2013-04-28 16:46:00,69.0,34.5,30.20,SE,127,9.4,14.0,28,0.00,CLR,,0.00,WeatherDisplay:10.37,2013-04-28 20:46:00,
2013-04-28 16:51:00,68.8,34.3,30.20,SSE,152,4.9,11.5,28,0.00,CLR,,0.00,WeatherDisplay:10.37,2013-04-28 20:51:00,
2013-04-28 16:56:00,68.5,34.1,30.20,ESE,107,9.4,13.0,28,0.00,CLR,,0.00,WeatherDisplay:10.37,2013-04-28 20:56:00,
2013-04-28 17:01:00,68.0,34.5,30.21,East,83,1.6,6.0,29,0.00,CLR,,0.00,WeatherDisplay:10.37,2013-04-28 21:01:00,
2013-04-28 17:06:00,67.6,32.4,30.21,SE,129,9.5,12.7,27,0.00,CLR,,0.00,WeatherDisplay:10.37,2013-04-28 21:06:00,
2013-04-28 17:11:00,67.3,34.8,30.21,East,83,8.1,17.3,30,0.00,CLR,,0.00,WeatherDisplay:10.37,2013-04-28 21:11:00,
2013-04-28 17:16:00,66.8,32.6,30.21,East,90,5.8,8.1,28,0.00,CLR,,0.00,WeatherDisplay:10.37,2013-04-28 21:16:00,
2013-04-28 17:21:00,66.1,32.0,30.21,ESE,120,4.2,10.4,28,0.00,CLR,,0.00,WeatherDisplay:10.37,2013-04-28 21:21:00,
2013-04-28 17:26:00,66.0,32.8,30.21,SE,127,11.1,15.0,29,0.00,CLR,,0.00,WeatherDisplay:10.37,2013-04-28 21:26:00,
2013-04-28 17:31:00,65.8,32.6,30.21,SE,146,11.5,17.3,29,0.00,CLR,,0.00,WeatherDisplay:10.37,2013-04-28 21:31:00,
2013-04-28 17:36:00,65.7,32.5,30.21,SE,139,11.5,18.4,29,0.00,CLR,,0.00,WeatherDisplay:10.37,2013-04-28 21:36:00,
2013-04-28 17:41:00,65.3,32.2,30.21,SE,141,4.1,13.0,29,0.00,CLR,,0.00,WeatherDisplay:10.37,2013-04-28 21:41:00,
2013-04-28 17:46:00,65.2,33.8,30.21,ESE,113,7.7,12.7,31,0.00,CLR,,0.00,WeatherDisplay:10.37,2013-04-28 21:46:00,
2013-04-28 17:51:00,65.0,33.6,30.21,ESE,118,4.6,8.1,31,0.00,CLR,,0.00,WeatherDisplay:10.37,2013-04-28 21:51:00,
2013-04-28 17:56:00,64.9,32.7,30.22,SE,129,11.7,17.3,30,0.00,CLR,,0.00,WeatherDisplay:10.37,2013-04-28 21:56:00,
2013-04-28 18:01:00,64.7,33.3,30.22,SSE,152,7.6,12.0,31,0.00,CLR,,0.00,WeatherDisplay:10.37,2013-04-28 22:01:00,
2013-04-28 18:06:00,64.5,34.0,30.21,ESE,114,5.9,12.0,32,0.00,CLR,,0.00,WeatherDisplay:10.37,2013-04-28 22:06:00,
2013-04-28 18:11:00,64.2,33.7,30.21,South,182,4.3,6.0,32,0.00,CLR,,0.00,WeatherDisplay:10.37,2013-04-28 22:11:00,
2013-04-28 18:16:00,63.9,34.2,30.21,SE,127,6.9,11.5,33,0.00,CLR,,0.00,WeatherDisplay:10.37,2013-04-28 22:16:00,
2013-04-28 18:21:00,63.7,34.0,30.21,ESE,117,4.4,6.9,33,0.00,CLR,,0.00,WeatherDisplay:10.37,2013-04-28 22:21:00,
2013-04-28 18:26:00,63.6,33.9,30.22,SE,125,6.2,8.1,33,0.00,CLR,,0.00,WeatherDisplay:10.37,2013-04-28 22:26:00,
2013-04-28 18:31:00,63.2,34.3,30.22,SE,144,6.3,11.5,34,0.00,CLR,,0.00,WeatherDisplay:10.37,2013-04-28 22:31:00,
2013-04-28 18:36:00,63.1,35.0,30.22,SE,135,4.7,6.9,35,0.00,CLR,,0.00,WeatherDisplay:10.37,2013-04-28 22:36:00,
2013-04-28 18:41:00,62.8,34.0,30.22,South,190,4.9,7.0,34,0.00,CLR,,0.00,WeatherDisplay:10.37,2013-04-28 22:41:00,
2013-04-28 18:46:00,62.6,33.8,30.21,ESE,114,5.3,13.8,34,0.00,CLR,,0.00,WeatherDisplay:10.37,2013-04-28 22:46:00,
2013-04-28 18:51:00,62.3,33.6,30.21,SSE,153,9.6,13.8,34,0.00,CLR,,0.00,WeatherDisplay:10.37,2013-04-28 22:51:00,
2013-04-28 18:56:00,62.0,34.0,30.22,SSE,149,3.7,6.0,35,0.00,CLR,,0.00,WeatherDisplay:10.37,2013-04-28 22:56:00,
2013-04-28 19:01:00,61.7,33.7,30.22,ESE,118,4.6,12.0,35,0.00,CLR,,0.00,WeatherDisplay:10.37,2013-04-28 23:01:00,
2013-04-28 19:06:00,61.2,34.0,30.22,SE,138,4.8,8.1,36,0.00,CLR,,0.00,WeatherDisplay:10.37,2013-04-28 23:06:00,
2013-04-28 19:11:00,60.9,34.4,30.22,SE,132,6.7,13.0,37,0.00,CLR,,0.00,WeatherDisplay:10.37,2013-04-28 23:11:00,
2013-04-28 19:16:00,60.6,34.2,30.22,SE,132,5.8,12.0,37,0.00,CLR,,0.00,WeatherDisplay:10.37,2013-04-28 23:16:00,
2013-04-28 19:21:00,60.1,34.4,30.22,ESE,120,3.6,6.9,38,0.00,CLR,,0.00,WeatherDisplay:10.37,2013-04-28 23:21:00,
2013-04-28 19:26:00,59.8,34.8,30.22,SSE,149,5.4,8.1,39,0.00,CLR,,0.00,WeatherDisplay:10.37,2013-04-28 23:26:00,
2013-04-28 19:31:00,59.5,34.5,30.22,ESE,113,5.2,10.4,39,0.00,CLR,,0.00,WeatherDisplay:10.37,2013-04-28 23:31:00,
2013-04-28 19:36:00,59.0,34.7,30.22,ESE,113,6.4,12.7,40,0.00,CLR,,0.00,WeatherDisplay:10.37,2013-04-28 23:36:00,
2013-04-28 19:41:00,58.7,35.0,30.22,SSE,151,2.5,5.8,41,0.00,CLR,,0.00,WeatherDisplay:10.37,2013-04-28 23:41:00,
2013-04-28 19:46:00,58.3,35.3,30.22,SSE,165,3.8,11.5,42,0.00,CLR,,0.00,WeatherDisplay:10.37,2013-04-28 23:46:00,
2013-04-28 19:51:00,58.0,35.0,30.22,ESE,122,2.2,3.5,42,0.00,CLR,,0.00,WeatherDisplay:10.37,2013-04-28 23:51:00,
2013-04-28 19:56:00,57.7,35.3,30.22,ESE,114,3.8,6.9,43,0.00,CLR,,0.00,WeatherDisplay:10.37,2013-04-28 23:56:00,
2013-04-28 20:01:00,57.3,35.6,30.22,SE,125,5.2,7.0,44,0.00,CLR,,0.00,WeatherDisplay:10.37,2013-04-29 00:01:00,
2013-04-28 20:06:00,57.0,35.3,30.22,East,91,5.0,9.2,44,0.00,CLR,,0.00,WeatherDisplay:10.37,2013-04-29 00:06:00,
2013-04-28 20:11:00,56.7,35.6,30.21,ESE,111,2.4,6.9,45,0.00,CLR,,0.00,WeatherDisplay:10.37,2013-04-29 00:11:00,
2013-04-28 20:16:00,56.4,35.9,30.21,ESE,118,5.1,9.2,46,0.00,CLR,,0.00,WeatherDisplay:10.37,2013-04-29 00:16:00,
2013-04-28 20:21:00,56.2,36.2,30.21,SE,146,5.1,6.9,47,0.00,CLR,,0.00,WeatherDisplay:10.37,2013-04-29 00:21:00,
2013-04-28 20:26:00,55.7,35.8,30.21,SE,138,2.0,4.6,47,0.00,CLR,,0.00,WeatherDisplay:10.37,2013-04-29 00:26:00,
2013-04-28 20:31:00,55.4,35.5,30.22,SE,141,1.5,4.6,47,0.00,CLR,,0.00,WeatherDisplay:10.37,2013-04-29 00:31:00,
2013-04-28 20:36:00,55.3,35.9,30.22,SSE,156,4.6,6.9,48,0.00,CLR,,0.00,WeatherDisplay:10.37,2013-04-29 00:36:00,
2013-04-28 20:41:00,55.0,36.2,30.22,SSE,158,1.5,5.8,49,0.00,CLR,,0.00,WeatherDisplay:10.37,2013-04-29 00:41:00,
2013-04-28 20:46:00,54.7,35.9,30.22,East,93,0.4,2.3,49,0.00,CLR,,0.00,WeatherDisplay:10.37,2013-04-29 00:46:00,
2013-04-28 20:51:00,54.4,36.1,30.23,SE,144,1.3,3.5,50,0.00,CLR,,0.00,WeatherDisplay:10.37,2013-04-29 00:51:00,
2013-04-28 20:56:00,54.1,35.9,30.23,SSE,163,1.1,3.5,50,0.00,CLR,,0.00,WeatherDisplay:10.37,2013-04-29 00:56:00,
2013-04-28 21:01:00,53.8,35.6,30.23,SE,125,1.2,2.3,50,0.00,CLR,,0.00,WeatherDisplay:10.37,2013-04-29 01:01:00,
2013-04-28 21:06:00,53.5,35.8,30.23,SSE,159,0.5,1.2,51,0.00,CLR,,0.00,WeatherDisplay:10.37,2013-04-29 01:06:00,
2013-04-28 21:11:00,53.2,36.0,30.23,SE,141,2.6,3.5,52,0.00,CLR,,0.00,WeatherDisplay:10.37,2013-04-29 01:11:00,
2013-04-28 21:16:00,52.9,35.7,30.24,SE,139,1.4,3.5,52,0.00,CLR,,0.00,WeatherDisplay:10.37,2013-04-29 01:16:00,
2013-04-28 21:21:00,52.6,35.5,30.24,SSE,158,1.5,3.5,52,0.00,CLR,,0.00,WeatherDisplay:10.37,2013-04-29 01:21:00,
2013-04-28 21:26:00,52.5,35.8,30.24,SE,134,2.2,4.6,53,0.00,CLR,,0.00,WeatherDisplay:10.37,2013-04-29 01:26:00,
2013-04-28 21:31:00,52.2,35.6,30.24,SSW,193,1.7,3.5,53,0.00,CLR,,0.00,WeatherDisplay:10.37,2013-04-29 01:31:00,
2013-04-28 21:36:00,52.0,36.3,30.24,SSW,192,0.0,0.0,55,0.00,CLR,,0.00,WeatherDisplay:10.37,2013-04-29 01:36:00,
2013-04-28 21:41:00,51.7,35.6,30.24,SSW,192,0.0,1.2,54,0.00,CLR,,0.00,WeatherDisplay:10.37,2013-04-29 01:41:00,
2013-04-28 21:46:00,51.4,35.8,30.24,SSW,192,0.0,0.0,55,0.00,CLR,,0.00,WeatherDisplay:10.37,2013-04-29 01:46:00,
2013-04-28 21:51:00,51.1,35.5,30.24,SSW,193,0.0,0.0,55,0.00,CLR,,0.00,WeatherDisplay:10.37,2013-04-29 01:51:00,
2013-04-28 21:56:00,50.8,35.7,30.24,SSW,193,0.0,0.0,56,0.00,CLR,,0.00,WeatherDisplay:10.37,2013-04-29 01:56:00,
2013-04-28 22:01:00,50.4,35.7,30.24,SSW,192,0.0,0.0,57,0.00,CLR,,0.00,WeatherDisplay:10.37,2013-04-29 02:01:00,
2013-04-28 22:06:00,49.9,35.3,30.24,SSW,192,0.0,0.0,57,0.00,CLR,,0.00,WeatherDisplay:10.37,2013-04-29 02:06:00,
2013-04-28 22:11:00,49.6,35.0,30.24,SSW,193,0.0,1.2,57,0.00,CLR,,0.00,WeatherDisplay:10.37,2013-04-29 02:11:00,
2013-04-28 22:16:00,49.2,35.9,30.25,SSW,193,0.0,0.0,60,0.00,CLR,,0.00,WeatherDisplay:10.37,2013-04-29 02:16:00,
2013-04-28 22:21:00,48.9,36.0,30.25,SSW,192,0.2,1.2,61,0.00,CLR,,0.00,WeatherDisplay:10.37,2013-04-29 02:21:00,
2013-04-28 22:26:00,48.6,35.7,30.25,SSW,192,0.2,1.2,61,0.00,CLR,,0.00,WeatherDisplay:10.37,2013-04-29 02:26:00,
2013-04-28 22:31:00,48.3,35.9,30.24,SSW,193,0.2,1.2,62,0.00,CLR,,0.00,WeatherDisplay:10.37,2013-04-29 02:31:00,
2013-04-28 22:36:00,47.9,35.9,30.24,SSE,159,0.2,2.3,63,0.00,CLR,,0.00,WeatherDisplay:10.37,2013-04-29 02:36:00,
2013-04-28 22:41:00,47.6,36.0,30.24,SSE,159,0.5,2.3,64,0.00,CLR,,0.00,WeatherDisplay:10.37,2013-04-29 02:41:00,
2013-04-28 22:46:00,47.3,35.7,30.25,SSE,153,0.7,1.2,64,0.00,CLR,,0.00,WeatherDisplay:10.37,2013-04-29 02:46:00,
2013-04-28 22:51:00,47.0,35.8,30.25,SSE,155,0.3,1.2,65,0.00,CLR,,0.00,WeatherDisplay:10.37,2013-04-29 02:51:00,
2013-04-28 22:56:00,46.7,35.2,30.25,SSE,153,1.0,2.3,64,0.00,CLR,,0.00,WeatherDisplay:10.37,2013-04-29 02:56:00,
2013-04-28 23:01:00,46.4,35.3,30.25,SSE,155,0.0,0.0,65,0.00,CLR,,0.00,WeatherDisplay:10.37,2013-04-29 03:01:00,
2013-04-28 23:06:00,46.2,35.5,30.25,SSE,155,0.1,1.2,66,0.00,CLR,,0.00,WeatherDisplay:10.37,2013-04-29 03:06:00,
2013-04-28 23:11:00,45.9,35.2,30.25,SSE,153,0.0,0.0,66,0.00,CLR,,0.00,WeatherDisplay:10.37,2013-04-29 03:11:00,
2013-04-28 23:16:00,45.8,35.1,30.25,SSE,155,0.0,0.0,66,0.00,CLR,,0.00,WeatherDisplay:10.37,2013-04-29 03:16:00,
2013-04-28 23:21:00,45.5,35.2,30.25,SSE,153,0.0,0.0,67,0.00,CLR,,0.00,WeatherDisplay:10.37,2013-04-29 03:21:00,
2013-04-28 23:26:00,45.4,35.1,30.25,SSE,155,0.0,0.0,67,0.00,CLR,,0.00,WeatherDisplay:10.37,2013-04-29 03:26:00,
2013-04-28 23:31:00,45.1,35.2,30.25,SSE,155,0.0,0.0,68,0.00,CLR,,0.00,WeatherDisplay:10.37,2013-04-29 03:31:00,
2013-04-28 23:36:00,44.9,35.3,30.25,SSE,155,0.0,0.0,69,0.00,CLR,,0.00,WeatherDisplay:10.37,2013-04-29 03:36:00,
2013-04-28 23:41:00,44.8,35.2,30.25,SSE,153,0.0,0.0,69,0.00,CLR,,0.00,WeatherDisplay:10.37,2013-04-29 03:41:00,
2013-04-28 23:46:00,44.6,35.4,30.25,SSE,153,0.0,0.0,70,0.00,CLR,,0.00,WeatherDisplay:10.37,2013-04-29 03:46:00,
2013-04-28 23:51:00,44.5,35.3,30.25,SSE,155,0.0,0.0,70,0.00,CLR,,0.00,WeatherDisplay:10.37,2013-04-29 03:51:00,
2013-04-28 23:56:00,44.3,35.5,30.25,SSE,155,0.0,0.0,71,0.00,CLR,,0.00,WeatherDisplay:10.37,2013-04-29 03:56:00,